DECAYED
Showing default

LEMUR 2 THE-CLEANER, 58333 (Decayed)

Orbit data source: Space-Track

LEMUR 2 THE-CLEANER, 58333 was an American payload satellite in LEO that was launched on Sat, 11 Nov 2023 UTC via an FALCON 9 launch vehicle from the Air Force Western Test Range (AFWTR). Payload-class satellites include a variety of spacecraft equipped with specific instruments for various scientific and technological missions. These include communications satellites like Starlink; space stations such as the ISS; scientific satellites like the Hubble; Earth observation satellites from companies like Planet Labs, Umbra, and HawkEye 360; GPS; miniature CubeSats for education and research; and military/defense satellites.

Not visible in the next 10 days
Identifier
58333, 2023-174CF
Orbit
Decayed
Country
Flag of USUS
Related business
Manufacturer
Spire/Glasgow
Mission
Decayed Commercial Com/MetRO
Bus & Motor
CUBESAT 6U, Unknown motor
Mass
10 kg wet, ~10 kg dry
Launch date (UTC)
2023-11-11 (2 years ago)
Launch vehicle
FALCON 9
Launch site
Air Force Western Test Range (AFWTR)
Object type
Payload
Rocket body
Debris
Shape & HBR
Box + 2 Pan, 0.3 m
Radar Cross Section
0.054 m², Small (<0.1 m²)

Expand to show TLE details & history
Last TLE update: 1 year ago

TLE from 1 year ago
0 LEMUR 2 THE-CLEANER
1 58333U 23174CF  25128.39224072  .26565867  26102-5  46110-3 0  9992
2 58333  97.3787 217.0349 0012791 247.7241 176.9032 16.47017549 83955
Epoch: 2025-05-08T09:24Z
TLE epoch observation values (Epoch: 2025-05-08T09:24:49.598Z)
Latitude
63.75165°
Longitude
-165.7709°
Altitude
166.568 km
Speed
7.807 km/s
True Right ascension
13h 27m 35s
True Declination
63° 36' 09"
Sunlit
Object was in daylight at epoch
Visualization orbit readout
Latitude
Unknown
Longitude
Unknown
Altitude
Unknown
Speed
Unknown
Apparent Right ascension
Unknown
Apparent Declination
Unknown
Sunlit
N/A
Visualization observer readout
Local Sidereal Time
15:47:21
Azimuth
Unknown
Elevation
Unknown
Doppler factor
Unknown
Orbital elements
Apogee altitude
152.341 km
Perigee altitude
135.656 km
Semi-major axis
6,522.136 km
Eccentricity
0.00128
Inclination
97.3787°
RAAN
217.0349°
Arg. of periapsis
247.7241°
True anomaly
176.91111°
Mean anomaly
176.9032°
Eccentric anomaly
176.90715°
Mean motion
4.12058 °/min
Orbital period
87.37 mins
BSTAR
0.0004611
Loading maneuver chart data...
Computing Atmospheric mass density...

Documentation

Showing up to 5 results
|